| time (UTC) | temp C | wind direction | speed KPH | gust KPH | rain 1hr cm | rain 24hr cm | rain mn cm | humidity % | barometer mb |
| 20260904055521 | 20 | 210 | 14.5 | 33.8 | 0.00 | 0.13 | 0.00 | 89 | 1011.6 |
| 20260904055022 | 20 | 294 | 14.5 | 33.8 | 0.00 | 0.13 | 0.00 | 90 | 1011.5 |
| 20260904054524 | 20 | 237 | 12.9 | 27.4 | 0.00 | 0.15 | 0.00 | 90 | 1011.7 |
| 20260904054024 | 20 | 204 | 12.9 | 27.4 | 0.00 | 0.15 | 0.00 | 90 | 1011.7 |
| 20260904053523 | 20 | 193 | 14.5 | 29.0 | 0.00 | 0.15 | 0.00 | 90 | 1011.9 |
| 20260904053022 | 20 | 177 | 14.5 | 30.6 | 0.00 | 0.15 | 0.00 | 90 | 1011.9 |
| 20260904052523 | 20 | 229 | 16.1 | 32.2 | 0.00 | 0.15 | 0.00 | 90 | 1012.0 |
| 20260904052024 | 20 | 213 | 14.5 | 43.5 | 0.00 | 0.15 | 0.00 | 90 | 1012.1 |
| 20260904051525 | 20 | 272 | 11.3 | 43.5 | 0.00 | 0.15 | 0.00 | 90 | 1012.1 |
| 20260904051139 | 20 | 217 | 16.1 | 33.8 | 0.00 | 0.15 | 0.00 | 89 | 1012.2 |
| 20260904051047 | 20 | 210 | 12.9 | 29.0 | 0.00 | 0.15 | 0.00 | 89 | 1012.3 |
| 20260904050021 | 20 | 222 | 17.7 | 33.8 | 0.00 | 0.15 | 0.00 | 89 | 1012.5 |
| 20260904045655 | 20 | 204 | 16.1 | 43.5 | 0.00 | 0.15 | 0.00 | 89 | 1012.6 |
| 20260904045552 | 20 | 241 | 19.3 | 43.5 | 0.00 | 0.15 | 0.00 | 89 | 1012.5 |
| 20260904044634 | 20 | 237 | 14.5 | 43.5 | 0.00 | 0.15 | 0.00 | 89 | 1012.7 |
| 20260904044544 | 20 | 197 | 14.5 | 37.0 | 0.00 | 0.15 | 0.00 | 89 | 1012.7 |
| 20260904043522 | 20 | 215 | 16.1 | 43.5 | 0.00 | 0.15 | 0.00 | 89 | 1012.7 |
| 20260904043022 | 20 | 210 | 14.5 | 29.0 | 0.00 | 0.15 | 0.00 | 89 | 1012.8 |
| 20260904042519 | 20 | 179 | 12.9 | 29.0 | 0.00 | 0.15 | 0.00 | 89 | 1012.8 |
| 20260904042017 | 20 | 255 | 14.5 | 29.0 | 0.00 | 0.15 | 0.00 | 89 | 1013.0 |
| 20260904041957 | 20 | 197 | 12.9 | 29.0 | 0.00 | 0.15 | 0.00 | 89 | 1013.0 |
| 20260904041018 | 20 | 182 | 14.5 | 29.0 | 0.00 | 0.15 | 0.00 | 89 | 1013.1 |
| 20260904040518 | 20 | 216 | 16.1 | 37.0 | 0.00 | 0.15 | 0.00 | 89 | 1013.1 |
| 20260904040019 | 20 | 236 | 14.5 | 37.0 | 0.00 | 0.15 | 0.00 | 89 | 1013.2 |
| 20260904035522 | 20 | 207 | 14.5 | 32.2 | 0.00 | 0.15 | 0.00 | 89 | 1013.3 |
| 20260904035018 | 20 | 214 | 16.1 | 33.8 | 0.00 | 0.15 | 0.00 | 89 | 1013.3 |
| 20260904034521 | 20 | 258 | 16.1 | 33.8 | 0.00 | 0.15 | 0.00 | 89 | 1013.2 |
| 20260904034018 | 20 | 208 | 14.5 | 33.8 | 0.00 | 0.15 | 0.00 | 89 | 1013.2 |
| 20260904033518 | 20 | 245 | 16.1 | 30.6 | 0.00 | 0.15 | 0.00 | 89 | 1013.3 |
| 20260904033017 | 20 | 178 | 16.1 | 30.6 | 0.00 | 0.15 | 0.00 | 89 | 1013.3 |
| 20260904032518 | 20 | 194 | 12.9 | 30.6 | 0.00 | 0.15 | 0.00 | 89 | 1013.4 |
| 20260904032015 | 20 | 218 | 14.5 | 37.0 | 0.00 | 0.15 | 0.00 | 89 | 1013.4 |
| 20260904031515 | 20 | 164 | 14.5 | 37.0 | 0.00 | 0.15 | 0.00 | 89 | 1013.4 |
| 20260904031016 | 20 | 172 | 12.9 | 25.7 | 0.00 | 0.15 | 0.00 | 89 | 1013.5 |
| 20260904030515 | 20 | 243 | 14.5 | 32.2 | 0.00 | 0.15 | 0.00 | 89 | 1013.5 |
| 20260904030504 | 20 | 177 | 12.9 | 32.2 | 0.00 | 0.15 | 0.00 | 89 | 1013.6 |
| 20260904025519 | 20 | 216 | 12.9 | 32.2 | 0.00 | 0.15 | 0.00 | 90 | 1013.6 |
| 20260904025010 | 20 | 223 | 12.9 | 32.2 | 0.00 | 0.15 | 0.00 | 90 | 1013.7 |
| 20260904024509 | 20 | 227 | 14.5 | 30.6 | 0.00 | 0.15 | 0.00 | 90 | 1013.7 |
| 20260904024013 | 20 | 204 | 14.5 | 30.6 | 0.00 | 0.15 | 0.00 | 90 | 1013.7 |
| 20260904023950 | 20 | 214 | 12.9 | 25.7 | 0.00 | 0.15 | 0.00 | 90 | 1013.9 |
| 20260904023011 | 20 | 239 | 14.5 | 27.4 | 0.00 | 0.15 | 0.00 | 90 | 1013.8 |
| 20260904022509 | 20 | 205 | 14.5 | 27.4 | 0.00 | 0.15 | 0.00 | 90 | 1013.9 |
| 20260904022033 | 20 | 197 | 12.9 | 30.6 | 0.00 | 0.15 | 0.00 | 91 | 1014.0 |
| 20260904022016 | 20 | 225 | 12.9 | 25.7 | 0.00 | 0.15 | 0.00 | 90 | 1013.9 |
| 20260904021009 | 20 | 244 | 11.3 | 30.6 | 0.00 | 0.15 | 0.00 | 91 | 1013.9 |
| 20260904020509 | 20 | 205 | 9.7 | 25.7 | 0.00 | 0.15 | 0.00 | 91 | 1014.1 |
| 20260904020021 | 20 | 204 | 11.3 | 29.0 | 0.00 | 0.15 | 0.00 | 91 | 1014.2 |
| 20260904015503 | 20 | 163 | 11.3 | 30.6 | 0.00 | 0.15 | 0.00 | 91 | 1014.3 |
| 20260904015003 | 20 | 231 | 11.3 | 30.6 | 0.00 | 0.15 | 0.00 | 91 | 1014.3 |
| 20260904014502 | 20 | 229 | 9.7 | 27.4 | 0.00 | 0.15 | 0.00 | 92 | 1014.3 |
| 20260904014006 | 20 | 270 | 11.3 | 24.1 | 0.00 | 0.15 | 0.00 | 92 | 1014.4 |
| 20260904013503 | 20 | 220 | 12.9 | 24.1 | 0.00 | 0.15 | 0.00 | 92 | 1014.4 |
| 20260904013003 | 20 | 260 | 9.7 | 22.5 | 0.00 | 0.15 | 0.00 | 92 | 1014.5 |
| 20260904012509 | 20 | 215 | 8.0 | 19.3 | 0.00 | 0.15 | 0.00 | 92 | 1014.5 |
| 20260904012021 | 20 | 232 | 11.3 | 24.1 | 0.00 | 0.15 | 0.00 | 92 | 1014.7 |
| 20260904012005 | 20 | 229 | 9.7 | 19.3 | 0.00 | 0.15 | 0.00 | 92 | 1014.6 |
| 20260904011456 | 20 | 229 | 12.9 | 24.1 | 0.00 | 0.15 | 0.00 | 91 | 1015.0 |
| 20260904011446 | 20 | 207 | 12.9 | 25.7 | 0.00 | 0.15 | 0.00 | 92 | 1014.9 |
| 20260904011207 | 20 | 219 | 12.9 | 25.7 | 0.00 | 0.15 | 0.00 | 92 | 1014.8 |
| 20260904005957 | 20 | 125 | 14.5 | 27.4 | 0.00 | 0.15 | 0.00 | 91 | 1015.0 |
| 20260904005005 | 20 | 250 | 14.5 | 32.2 | 0.00 | 0.15 | 0.00 | 91 | 1015.0 |
| 20260904004506 | 20 | 216 | 12.9 | 32.2 | 0.00 | 0.15 | 0.00 | 91 | 1015.1 |
| 20260904004032 | 20 | 222 | 11.3 | 25.7 | 0.00 | 0.15 | 0.00 | 90 | 1015.3 |
| 20260904004022 | 20 | 224 | 12.9 | 25.7 | 0.00 | 0.15 | 0.00 | 90 | 1015.3 |
| 20260904004006 | 20 | 199 | 11.3 | 24.1 | 0.00 | 0.15 | 0.00 | 90 | 1015.1 |
| 20260904003516 | 20 | 201 | 11.3 | 24.1 | 0.00 | 0.15 | 0.00 | 90 | 1015.2 |
| 20260904002006 | 20 | 217 | 11.3 | 25.7 | 0.00 | 0.15 | 0.00 | 90 | 1015.3 |
| 20260904001606 | 20 | 206 | 11.3 | 29.0 | 0.00 | 0.15 | 0.00 | 90 | 1015.4 |
| 20260904001524 | 20 | 193 | 12.9 | 25.7 | 0.00 | 0.15 | 0.00 | 90 | 1015.4 |
| 20260904000504 | 21 | 218 | 9.7 | 29.0 | 0.00 | 0.15 | 0.00 | 90 | 1015.4 |
| 20260904000012 | 21 | 213 | 9.7 | 22.5 | 0.00 | 0.15 | 0.00 | 90 | 1015.4 |
| 20260903235504 | 21 | 243 | 8.0 | 22.5 | 0.00 | 0.15 | 0.00 | 90 | 1015.5 |
| 20260903235002 | 21 | 189 | 9.7 | 17.7 | 0.00 | 0.15 | 0.00 | 90 | 1015.6 |
| 20260903234507 | 21 | 203 | 9.7 | 20.9 | 0.00 | 0.15 | 0.00 | 90 | 1015.6 |
| 20260903234004 | 21 | 191 | 9.7 | 20.9 | 0.00 | 0.15 | 0.00 | 90 | 1015.7 |
| 20260903233503 | 21 | 266 | 9.7 | 22.5 | 0.00 | 0.15 | 0.00 | 90 | 1015.8 |
| 20260903233004 | 20 | 200 | 11.3 | 25.7 | 0.00 | 0.15 | 0.00 | 90 | 1015.7 |
| 20260903232626 | 21 | 223 | 8.0 | 19.3 | 0.00 | 0.15 | 0.00 | 90 | 1015.7 |
| 20260903232529 | 20 | 203 | 9.7 | 25.7 | 0.00 | 0.15 | 0.00 | 90 | 1015.6 |
| 20260903231504 | 20 | 185 | 9.7 | 19.3 | 0.00 | 0.15 | 0.00 | 90 | 1015.9 |
| 20260903231002 | 21 | 221 | 11.3 | 22.5 | 0.00 | 0.15 | 0.00 | 90 | 1016.0 |
| 20260903230501 | 21 | 235 | 11.3 | 22.5 | 0.00 | 0.15 | 0.00 | 90 | 1016.0 |
| 20260903225958 | 21 | 219 | 11.3 | 20.9 | 0.00 | 0.15 | 0.00 | 90 | 1016.0 |
| 20260903225500 | 20 | 204 | 11.3 | 27.4 | 0.00 | 0.15 | 0.00 | 90 | 1016.0 |
| 20260903224956 | 20 | 201 | 11.3 | 27.4 | 0.00 | 0.15 | 0.00 | 90 | 1016.0 |
| 20260903224501 | 20 | 190 | 11.3 | 22.5 | 0.00 | 0.15 | 0.00 | 90 | 1016.1 |
| 20260903223957 | 20 | 204 | 9.7 | 25.7 | 0.00 | 0.15 | 0.00 | 90 | 1016.2 |
| 20260903223459 | 20 | 183 | 8.0 | 25.7 | 0.00 | 0.15 | 0.00 | 90 | 1016.2 |
| 20260903222959 | 20 | 210 | 8.0 | 17.7 | 0.00 | 0.15 | 0.00 | 90 | 1016.3 |
| 20260903222500 | 21 | 238 | 6.4 | 17.7 | 0.00 | 0.15 | 0.00 | 90 | 1016.5 |
| 20260903222000 | 20 | 208 | 6.4 | 14.5 | 0.00 | 0.15 | 0.00 | 90 | 1016.4 |
| 20260903221500 | 21 | 227 | 8.0 | 17.7 | 0.00 | 0.15 | 0.00 | 90 | 1016.5 |
| 20260903221453 | 21 | 214 | 9.7 | 20.9 | 0.00 | 0.15 | 0.00 | 90 | 1016.6 |
| 20260903220502 | 21 | 231 | 11.3 | 20.9 | 0.00 | 0.15 | 0.00 | 90 | 1016.5 |
| 20260903215957 | 21 | 218 | 9.7 | 17.7 | 0.00 | 0.15 | 0.15 | 90 | 1016.5 |
| 20260903215946 | 21 | 166 | 9.7 | 20.9 | 0.00 | 0.15 | 0.15 | 90 | 1016.6 |
| 20260903214957 | 21 | 220 | 11.3 | 22.5 | 0.00 | 0.15 | 0.15 | 90 | 1016.7 |
| 20260903214450 | 20 | 158 | 12.9 | 27.4 | 0.00 | 0.15 | 0.15 | 90 | 1016.7 |
| 20260903213945 | 20 | 181 | 11.3 | 27.4 | 0.00 | 0.15 | 0.15 | 90 | 1016.8 |
| 20260903213446 | 20 | 207 | 8.0 | 20.9 | 0.00 | 0.15 | 0.15 | 90 | 1016.8 |
| 20260903212947 | 20 | 159 | 8.0 | 20.9 | 0.00 | 0.15 | 0.15 | 90 | 1016.9 |
| 20260903212446 | 20 | 237 | 8.0 | 20.9 | 0.00 | 0.15 | 0.15 | 90 | 1016.9 |
| 20260903211947 | 20 | 235 | 9.7 | 24.1 | 0.00 | 0.15 | 0.15 | 90 | 1016.9 |
| 20260903211532 | 20 | 241 | 9.7 | 22.5 | 0.00 | 0.15 | 0.15 | 90 | 1016.8 |
| 20260903211522 | 20 | 220 | 8.0 | 22.5 | 0.00 | 0.15 | 0.15 | 91 | 1016.9 |
| 20260903211454 | 20 | 177 | 9.7 | 24.1 | 0.00 | 0.15 | 0.15 | 90 | 1016.7 |
| 20260903210441 | 20 | 152 | 8.0 | 16.1 | 0.00 | 0.15 | 0.15 | 91 | 1017.0 |
| 20260903205448 | 20 | 216 | 9.7 | 25.7 | 0.00 | 0.15 | 0.15 | 91 | 1017.2 |
| 20260903204947 | 20 | 231 | 11.3 | 25.7 | 0.00 | 0.15 | 0.15 | 91 | 1017.3 |
| 20260903204446 | 20 | 197 | 9.7 | 17.7 | 0.00 | 0.15 | 0.15 | 92 | 1017.4 |
| 20260903203947 | 20 | 225 | 8.0 | 14.5 | 0.00 | 0.15 | 0.15 | 92 | 1017.4 |
| 20260903203453 | 20 | 212 | 6.4 | 14.5 | 0.00 | 0.15 | 0.15 | 92 | 1017.3 |
| 20260903203442 | 20 | 229 | 6.4 | 14.5 | 0.00 | 0.15 | 0.15 | 92 | 1017.5 |
| 20260903202437 | 20 | 189 | 6.4 | 14.5 | 0.00 | 0.15 | 0.15 | 92 | 1017.3 |
| 20260903201940 | 20 | 211 | 6.4 | 12.9 | 0.00 | 0.15 | 0.15 | 92 | 1017.4 |
| 20260903201438 | 20 | 215 | 6.4 | 16.1 | 0.00 | 0.15 | 0.15 | 91 | 1017.4 |
| 20260903200934 | 20 | 176 | 6.4 | 16.1 | 0.00 | 0.15 | 0.15 | 91 | 1017.3 |
| 20260903200439 | 20 | 217 | 6.4 | 16.1 | 0.00 | 0.15 | 0.15 | 91 | 1017.4 |
| 20260903195936 | 20 | 212 | 6.4 | 16.1 | 0.00 | 0.15 | 0.15 | 91 | 1017.4 |
| 20260903195435 | 20 | 205 | 6.4 | 14.5 | 0.00 | 0.15 | 0.15 | 91 | 1017.4 |
| 20260903195417 | 20 | 230 | 8.0 | 20.9 | 0.00 | 0.15 | 0.15 | 90 | 1017.4 |
| 20260903195102 | 20 | 199 | 4.8 | 14.5 | 0.00 | 0.15 | 0.15 | 91 | 1017.5 |
| 20260903194719 | 20 | 199 | 8.0 | 20.9 | 0.00 | 0.15 | 0.15 | 90 | 1017.3 |
| 20260903194529 | 20 | 230 | 6.4 | 19.3 | 0.00 | 0.15 | 0.15 | 90 | 1017.5 |
| 20260903192935 | 20 | 177 | 8.0 | 22.5 | 0.00 | 0.15 | 0.15 | 90 | 1017.3 |
| 20260903192439 | 20 | 228 | 8.0 | 22.5 | 0.00 | 0.15 | 0.15 | 90 | 1017.5 |
| 20260903191935 | 21 | 242 | 8.0 | 16.1 | 0.00 | 0.15 | 0.15 | 89 | 1017.4 |
| 20260903191923 | 21 | 208 | 8.0 | 19.3 | 0.00 | 0.15 | 0.15 | 89 | 1017.5 |
| 20260903190941 | 21 | 239 | 8.0 | 19.3 | 0.00 | 0.15 | 0.15 | 89 | 1017.4 |
| 20260903190438 | 21 | 194 | 8.0 | 20.9 | 0.00 | 0.15 | 0.15 | 88 | 1017.4 |
| 20260903185936 | 21 | 222 | 9.7 | 20.9 | 0.00 | 0.15 | 0.15 | 88 | 1017.5 |
| 20260903185435 | 21 | 258 | 9.7 | 22.5 | 0.00 | 0.15 | 0.15 | 88 | 1017.5 |
| 20260903184933 | 21 | 246 | 11.3 | 22.5 | 0.00 | 0.15 | 0.15 | 88 | 1017.5 |
| 20260903184433 | 21 | 234 | 9.7 | 22.5 | 0.00 | 0.15 | 0.15 | 87 | 1017.5 |
| 20260903183932 | 21 | 219 | 9.7 | 20.9 | 0.00 | 0.15 | 0.15 | 87 | 1017.5 |
| 20260903183434 | 21 | 220 | 9.7 | 25.7 | 0.00 | 0.15 | 0.15 | 87 | 1017.5 |
| 20260903182936 | 21 | 220 | 9.7 | 25.7 | 0.00 | 0.15 | 0.15 | 87 | 1017.6 |
| 20260903182520 | 21 | 228 | 9.7 | 24.1 | 0.00 | 0.15 | 0.15 | 87 | 1017.4 |
| 20260903182118 | 21 | 277 | 8.0 | 22.5 | 0.00 | 0.15 | 0.15 | 87 | 1017.5 |
| 20260903182100 | 21 | 217 | 9.7 | 24.1 | 0.00 | 0.15 | 0.15 | 86 | 1017.6 |
| 20260903182001 | 21 | 229 | 9.7 | 22.5 | 0.00 | 0.15 | 0.15 | 87 | 1017.4 |
| 20260903181057 | 21 | 237 | 8.0 | 19.3 | 0.00 | 0.15 | 0.15 | 87 | 1017.6 |
| 20260903180536 | 21 | 184 | 8.0 | 19.3 | 0.00 | 0.15 | 0.15 | 86 | 1017.6 |
| 20260903174935 | 21 | 235 | 9.7 | 22.5 | 0.00 | 0.15 | 0.15 | 86 | 1017.5 |
| 20260903174430 | 21 | 244 | 11.3 | 20.9 | 0.00 | 0.15 | 0.15 | 86 | 1017.6 |
| 20260903173930 | 21 | 194 | 12.9 | 22.5 | 0.00 | 0.15 | 0.15 | 85 | 1017.8 |
| 20260903173432 | 22 | 230 | 12.9 | 25.7 | 0.00 | 0.15 | 0.15 | 85 | 1017.8 |
| 20260903172959 | 21 | 228 | 14.5 | 33.8 | 0.00 | 0.15 | 0.15 | 86 | 1017.8 |
| 20260903172936 | 22 | 262 | 12.9 | 25.7 | 0.00 | 0.15 | 0.15 | 86 | 1017.8 |
| 20260903171931 | 21 | 221 | 12.9 | 33.8 | 0.00 | 0.15 | 0.15 | 85 | 1017.8 |
| 20260903171430 | 21 | 234 | 11.3 | 22.5 | 0.00 | 0.15 | 0.15 | 85 | 1017.8 |
| 20260903171006 | 21 | 219 | 12.9 | 27.4 | 0.00 | 0.15 | 0.15 | 85 | 1017.5 |
| 20260903170941 | 21 | 225 | 12.9 | 25.7 | 0.00 | 0.15 | 0.15 | 85 | 1017.6 |
| 20260903165931 | 21 | 232 | 12.9 | 27.4 | 0.00 | 0.15 | 0.15 | 85 | 1017.5 |
| 20260903165430 | 22 | 219 | 14.5 | 27.4 | 0.00 | 0.15 | 0.15 | 84 | 1017.6 |
| 20260903164931 | 22 | 192 | 14.5 | 30.6 | 0.00 | 0.15 | 0.15 | 84 | 1017.6 |
| 20260903164433 | 22 | 240 | 14.5 | 30.6 | 0.00 | 0.15 | 0.15 | 84 | 1017.6 |
| 20260903163933 | 22 | 187 | 16.1 | 30.6 | 0.00 | 0.15 | 0.15 | 83 | 1017.5 |
| 20260903163433 | 22 | 210 | 16.1 | 30.6 | 0.00 | 0.15 | 0.15 | 83 | 1017.6 |
| 20260903163039 | 22 | 190 | 12.9 | 29.0 | 0.00 | 0.15 | 0.15 | 84 | 1018.0 |
| 20260903163029 | 22 | 233 | 12.9 | 29.0 | 0.00 | 0.15 | 0.15 | 83 | 1018.0 |
| 20260903162945 | 22 | 243 | 12.9 | 29.0 | 0.00 | 0.15 | 0.15 | 84 | 1017.8 |
| 20260903161434 | 22 | 256 | 14.5 | 27.4 | 0.00 | 0.15 | 0.15 | 83 | 1017.9 |
| 20260903160932 | 22 | 220 | 14.5 | 27.4 | 0.00 | 0.15 | 0.15 | 83 | 1017.8 |
| 20260903160537 | 22 | 249 | 16.1 | 35.4 | 0.00 | 0.15 | 0.15 | 81 | 1017.8 |
| 20260903160451 | 22 | 233 | 14.5 | 29.0 | 0.00 | 0.15 | 0.15 | 82 | 1017.5 |
| 20260903160140 | 22 | 222 | 16.1 | 30.6 | 0.00 | 0.15 | 0.15 | 82 | 1017.6 |
| 20260903154931 | 22 | 228 | 14.5 | 35.4 | 0.00 | 0.15 | 0.15 | 81 | 1017.8 |
| 20260903154430 | 22 | 224 | 12.9 | 22.5 | 0.00 | 0.15 | 0.15 | 81 | 1017.9 |
| 20260903153930 | 22 | 234 | 14.5 | 33.8 | 0.00 | 0.15 | 0.15 | 80 | 1017.9 |
| 20260903153432 | 22 | 237 | 14.5 | 33.8 | 0.00 | 0.15 | 0.15 | 80 | 1018.0 |
| 20260903152934 | 22 | 194 | 12.9 | 30.6 | 0.00 | 0.15 | 0.15 | 80 | 1018.0 |
| 20260903152432 | 22 | 201 | 14.5 | 27.4 | 0.00 | 0.15 | 0.15 | 80 | 1017.9 |
| 20260903152425 | 22 | 225 | 12.9 | 27.4 | 0.00 | 0.15 | 0.15 | 79 | 1018.0 |
| 20260903151433 | 23 | 204 | 14.5 | 27.4 | 0.00 | 0.15 | 0.15 | 78 | 1018.0 |
| 20260903150931 | 23 | 231 | 14.5 | 29.0 | 0.00 | 0.15 | 0.15 | 78 | 1018.1 |
| 20260903150432 | 23 | 227 | 16.1 | 29.0 | 0.00 | 0.15 | 0.15 | 78 | 1018.0 |
| 20260903150000 | 22 | 236 | 19.3 | 41.8 | 0.00 | 0.15 | 0.15 | 77 | 1017.9 |
| 20260903145938 | 22 | 241 | 17.7 | 30.6 | 0.00 | 0.15 | 0.15 | 78 | 1017.9 |
| 20260903144931 | 23 | 237 | 20.9 | 41.8 | 0.00 | 0.15 | 0.15 | 77 | 1017.8 |
| 20260903144432 | 22 | 268 | 22.5 | 46.7 | 0.00 | 0.15 | 0.15 | 77 | 1017.9 |
| 20260903143933 | 22 | 190 | 22.5 | 46.7 | 0.00 | 0.15 | 0.15 | 77 | 1017.8 |
| 20260903143432 | 22 | 231 | 20.9 | 40.2 | 0.00 | 0.15 | 0.15 | 79 | 1017.8 |
| 20260903142930 | 22 | 240 | 20.9 | 40.2 | 0.00 | 0.15 | 0.15 | 79 | 1017.8 |
| 20260903142432 | 22 | 199 | 20.9 | 41.8 | 0.00 | 0.15 | 0.15 | 78 | 1017.8 |
| 20260903141934 | 22 | 229 | 22.5 | 41.8 | 0.00 | 0.15 | 0.15 | 78 | 1017.6 |
| 20260903141430 | 23 | 211 | 20.9 | 38.6 | 0.00 | 0.15 | 0.15 | 78 | 1017.8 |
| 20260903140950 | 22 | 233 | 17.7 | 40.2 | 0.00 | 0.15 | 0.15 | 80 | 1017.8 |
| 20260903140933 | 23 | 258 | 17.7 | 35.4 | 0.00 | 0.15 | 0.15 | 79 | 1017.8 |
| 20260903140644 | 22 | 242 | 16.1 | 40.2 | 0.00 | 0.15 | 0.15 | 81 | 1017.9 |
| 20260903135423 | 22 | 197 | 16.1 | 38.6 | 0.00 | 0.15 | 0.15 | 80 | 1017.7 |
| 20260903134919 | 22 | 234 | 19.3 | 33.8 | 0.00 | 0.15 | 0.15 | 81 | 1017.9 |
| 20260903134413 | 22 | 256 | 20.9 | 37.0 | 0.00 | 0.15 | 0.15 | 79 | 1017.9 |
| 20260903133907 | 22 | 243 | 19.3 | 37.0 | 0.00 | 0.15 | 0.15 | 77 | 1017.8 |
| 20260903133518 | 22 | 273 | 17.7 | 37.0 | 0.00 | 0.15 | 0.15 | 77 | 1017.7 |
| 20260903133422 | 22 | 272 | 17.7 | 37.0 | 0.00 | 0.15 | 0.15 | 79 | 1017.8 |
| 20260903132405 | 22 | 195 | 19.3 | 41.8 | 0.00 | 0.15 | 0.15 | 79 | 1017.7 |
| 20260903131909 | 22 | 252 | 22.5 | 46.7 | 0.00 | 0.15 | 0.15 | 78 | 1017.6 |
| 20260903131408 | 22 | 253 | 20.9 | 46.7 | 0.00 | 0.15 | 0.15 | 77 | 1017.5 |
| 20260903131358 | 22 | 270 | 19.3 | 32.2 | 0.00 | 0.15 | 0.15 | 77 | 1017.6 |
| 20260903130504 | 22 | 243 | 19.3 | 38.6 | 0.00 | 0.15 | 0.15 | 79 | 1017.6 |
| 20260903130425 | 23 | 233 | 20.9 | 38.6 | 0.00 | 0.15 | 0.15 | 79 | 1017.6 |
| 20260903125647 | 21 | 226 | 19.3 | 38.6 | 0.00 | 0.15 | 0.15 | 82 | 1017.6 |
| 20260903125510 | 22 | 249 | 19.3 | 38.6 | 0.00 | 0.15 | 0.15 | 80 | 1017.6 |
| 20260903125123 | 21 | 225 | 20.9 | 38.6 | 0.00 | 0.15 | 0.15 | 82 | 1017.6 |
| 20260903124935 | 21 | 210 | 17.7 | 38.6 | 0.00 | 0.15 | 0.15 | 82 | 1017.5 |
| 20260903123402 | 21 | 224 | 17.7 | 37.0 | 0.00 | 0.15 | 0.15 | 83 | 1017.6 |
| 20260903122908 | 21 | 219 | 17.7 | 37.0 | 0.00 | 0.15 | 0.15 | 83 | 1017.5 |
| 20260903122403 | 21 | 239 | 17.7 | 29.0 | 0.00 | 0.15 | 0.15 | 84 | 1017.5 |
| 20260903121926 | 21 | 221 | 17.7 | 40.2 | 0.00 | 0.15 | 0.15 | 84 | 1017.4 |
| 20260903121423 | 21 | 212 | 19.3 | 40.2 | 0.00 | 0.15 | 0.15 | 84 | 1017.4 |
| 20260903120921 | 22 | 256 | 20.9 | 40.2 | 0.03 | 0.15 | 0.15 | 85 | 1017.4 |
| 20260903115902 | 21 | 210 | 17.7 | 41.8 | 0.03 | 0.15 | 0.15 | 84 | 1017.4 |
| 20260903115409 | 22 | 237 | 14.5 | 30.6 | 0.03 | 0.15 | 0.15 | 84 | 1017.3 |
| 20260903115200 | 22 | 218 | 16.1 | 40.2 | 0.03 | 0.15 | 0.15 | 85 | 1017.3 |
| 20260903114935 | 22 | 227 | 16.1 | 30.6 | 0.03 | 0.15 | 0.15 | 85 | 1017.3 |
| 20260903113902 | 22 | 256 | 17.7 | 40.2 | 0.03 | 0.15 | 0.15 | 85 | 1017.2 |
| 20260903113505 | 22 | 234 | 17.7 | 40.2 | 0.03 | 0.15 | 0.15 | 87 | 1017.3 |
| 20260903113003 | 21 | 249 | 17.7 | 38.6 | 0.03 | 0.15 | 0.15 | 89 | 1017.3 |
| 20260903111902 | 21 | 243 | 16.1 | 38.6 | 0.03 | 0.15 | 0.15 | 90 | 1017.4 |
| 20260903111400 | 21 | 137 | 14.5 | 27.4 | 0.03 | 0.15 | 0.13 | 88 | 1017.4 |
| 20260903110901 | 21 | 254 | 16.1 | 33.8 | 0.00 | 0.13 | 0.13 | 87 | 1017.4 |
| 20260903110411 | 21 | 223 | 17.7 | 33.8 | 0.00 | 0.13 | 0.13 | 86 | 1017.3 |
| 20260903105903 | 21 | 235 | 17.7 | 37.0 | 0.00 | 0.13 | 0.13 | 86 | 1017.4 |
| 20260903105357 | 21 | 236 | 20.9 | 43.5 | 0.00 | 0.13 | 0.13 | 86 | 1017.4 |
| 20260903105343 | 21 | 199 | 24.1 | 48.3 | 0.00 | 0.13 | 0.13 | 86 | 1017.4 |
| 20260903104356 | 21 | 273 | 20.9 | 48.3 | 0.00 | 0.13 | 0.13 | 86 | 1017.3 |
| 20260903103856 | 21 | 257 | 17.7 | 48.3 | 0.00 | 0.13 | 0.13 | 87 | 1017.1 |
| 20260903103357 | 21 | 243 | 19.3 | 48.3 | 0.00 | 0.13 | 0.13 | 87 | 1017.2 |
| 20260903102858 | 21 | 225 | 17.7 | 33.8 | 0.00 | 0.13 | 0.13 | 88 | 1017.1 |
| 20260903102400 | 21 | 250 | 17.7 | 32.2 | 0.00 | 0.13 | 0.13 | 89 | 1017.2 |
| 20260903102341 | 21 | 240 | 17.7 | 32.2 | 0.00 | 0.13 | 0.13 | 90 | 1017.3 |
| 20260903101358 | 20 | 227 | 16.1 | 30.6 | 0.00 | 0.13 | 0.13 | 92 | 1017.3 |
| 20260903100858 | 20 | 237 | 14.5 | 30.6 | 0.00 | 0.13 | 0.13 | 93 | 1017.1 |
| 20260903100358 | 20 | 218 | 12.9 | 27.4 | 0.00 | 0.13 | 0.13 | 94 | 1017.1 |
| 20260903095858 | 20 | 219 | 12.9 | 27.4 | 0.00 | 0.13 | 0.13 | 94 | 1017.1 |
| 20260903095838 | 20 | 222 | 14.5 | 33.8 | 0.00 | 0.13 | 0.13 | 95 | 1017.1 |
| 20260903094856 | 20 | 245 | 14.5 | 33.8 | 0.00 | 0.13 | 0.13 | 95 | 1017.2 |
| 20260903094839 | 20 | 247 | 12.9 | 27.4 | 0.00 | 0.13 | 0.13 | 96 | 1017.1 |
| 20260903094609 | 20 | 189 | 14.5 | 30.6 | 0.00 | 0.13 | 0.13 | 96 | 1017.1 |
| 20260903093357 | 20 | 229 | 11.3 | 24.1 | 0.00 | 0.13 | 0.13 | 96 | 1017.1 |
| 20260903093346 | 19 | 204 | 12.9 | 25.7 | 0.00 | 0.13 | 0.13 | 97 | 1017.0 |
| 20260903092843 | 19 | 204 | 12.9 | 29.0 | 0.00 | 0.13 | 0.13 | 97 | 1017.1 |
| 20260903092611 | 19 | 167 | 11.3 | 27.4 | 0.00 | 0.13 | 0.13 | 97 | 1017.1 |
| 20260903091354 | 19 | 242 | 12.9 | 29.0 | 0.00 | 0.13 | 0.13 | 97 | 1017.1 |
| 20260903090857 | 19 | 210 | 11.3 | 27.4 | 0.03 | 0.13 | 0.13 | 97 | 1016.9 |
| 20260903090847 | 19 | 185 | 12.9 | 27.4 | 0.03 | 0.13 | 0.13 | 97 | 1016.9 |
| 20260903085851 | 19 | 171 | 12.9 | 25.7 | 0.03 | 0.13 | 0.13 | 98 | 1016.8 |
| 20260903085840 | 19 | 222 | 11.3 | 24.1 | 0.03 | 0.13 | 0.13 | 98 | 1016.8 |
| 20260903084853 | 18 | 244 | 11.3 | 32.2 | 0.03 | 0.13 | 0.13 | 97 | 1016.8 |
| 20260903084838 | 18 | 211 | 11.3 | 32.2 | 0.03 | 0.13 | 0.13 | 97 | 1016.6 |
| 20260903083852 | 18 | 247 | 9.7 | 25.7 | 0.03 | 0.13 | 0.13 | 97 | 1016.6 |
| 20260903083353 | 18 | 225 | 11.3 | 24.1 | 0.05 | 0.13 | 0.13 | 98 | 1016.5 |
| 20260903082855 | 18 | 237 | 11.3 | 25.7 | 0.05 | 0.13 | 0.13 | 97 | 1016.5 |
| 20260903082354 | 18 | 233 | 11.3 | 25.7 | 0.05 | 0.13 | 0.13 | 97 | 1016.5 |
| 20260903081851 | 18 | 179 | 9.7 | 25.7 | 0.05 | 0.13 | 0.13 | 97 | 1016.5 |
| 20260903081352 | 18 | 218 | 9.7 | 25.7 | 0.05 | 0.13 | 0.13 | 97 | 1016.6 |
| 20260903080847 | 18 | 225 | 11.3 | 25.7 | 0.05 | 0.10 | 0.10 | 97 | 1016.6 |
| 20260903080348 | 18 | 177 | 12.9 | 25.7 | 0.05 | 0.10 | 0.10 | 97 | 1016.6 |
| 20260903075851 | 18 | 197 | 11.3 | 24.1 | 0.05 | 0.10 | 0.10 | 97 | 1016.7 |
| 20260903075347 | 18 | 232 | 11.3 | 22.5 | 0.05 | 0.10 | 0.10 | 97 | 1016.6 |
| 20260903074846 | 18 | 177 | 11.3 | 27.4 | 0.05 | 0.10 | 0.10 | 97 | 1016.4 |
| 20260903074341 | 18 | 212 | 11.3 | 27.4 | 0.05 | 0.10 | 0.10 | 96 | 1016.5 |
| 20260903073842 | 18 | 187 | 11.3 | 27.4 | 0.05 | 0.10 | 0.10 | 96 | 1016.5 |
| 20260903073344 | 18 | 239 | 12.9 | 27.4 | 0.05 | 0.08 | 0.08 | 96 | 1016.5 |
| 20260903072841 | 18 | 194 | 12.9 | 25.7 | 0.05 | 0.08 | 0.08 | 96 | 1016.7 |
| 20260903072342 | 18 | 229 | 12.9 | 25.7 | 0.05 | 0.08 | 0.08 | 96 | 1016.6 |
| 20260903071844 | 18 | 279 | 12.9 | 27.4 | 0.05 | 0.08 | 0.08 | 96 | 1016.5 |
| 20260903071341 | 18 | 214 | 14.5 | 29.0 | 0.05 | 0.08 | 0.08 | 96 | 1016.5 |
| 20260903070838 | 18 | 240 | 12.9 | 29.0 | 0.03 | 0.05 | 0.05 | 96 | 1016.7 |
| 20260903070336 | 18 | 193 | 11.3 | 27.4 | 0.05 | 0.05 | 0.05 | 96 | 1016.7 |
| 20260903065838 | 18 | 220 | 11.3 | 24.1 | 0.05 | 0.05 | 0.05 | 95 | 1016.7 |
| 20260903065337 | 18 | 158 | 11.3 | 25.7 | 0.05 | 0.05 | 0.05 | 95 | 1016.7 |
| 20260903064838 | 18 | 244 | 11.3 | 25.7 | 0.05 | 0.05 | 0.05 | 95 | 1016.6 |
| 20260903064338 | 18 | 225 | 11.3 | 24.1 | 0.05 | 0.05 | 0.05 | 95 | 1016.6 |
| 20260903063835 | 18 | 231 | 11.3 | 22.5 | 0.05 | 0.05 | 0.05 | 94 | 1016.7 |
| 20260903063337 | 18 | 197 | 11.3 | 25.7 | 0.05 | 0.05 | 0.05 | 94 | 1016.7 |
| 20260903062835 | 18 | 223 | 11.3 | 25.7 | 0.05 | 0.05 | 0.05 | 94 | 1016.6 |
| 20260903062823 | 18 | 222 | 9.7 | 20.9 | 0.05 | 0.05 | 0.05 | 93 | 1016.5 |
| 20260903061833 | 18 | 179 | 9.7 | 24.1 | 0.05 | 0.05 | 0.05 | 93 | 1016.5 |
| 20260903061334 | 18 | 171 | 9.7 | 24.1 | 0.05 | 0.05 | 0.05 | 92 | 1016.6 |
| 20260903060836 | 18 | 165 | 9.7 | 20.9 | 0.05 | 0.05 | 0.05 | 92 | 1016.5 |
| 20260903060332 | 18 | 246 | 9.7 | 22.5 | 0.03 | 0.03 | 0.03 | 91 | 1016.4 |
| 20260903055835 | 18 | 239 | 11.3 | 22.5 | 0.03 | 0.03 | 0.03 | 90 | 1016.4 |